When you browse on this site, cookies collect data to enhance your experience and personalize the content and advertising you see.
Visit our Privacy Policy to learn more. By continuing to use the site, you agree to this use of cookies and data.
  • In Hungary
  • List of Countries
  • For 7 days
  • Water Temperature
  • Satellite Maps
  • Weather Map
  • News
  • Weather Widgets
  • user-avatar
    Login

    Hourly Weather Gloucester

    Today, 18 January, Friday

    Time Temperature Precipitation Wind Pressure Humidity
    00:00 +2°C° 0 mm 1 mps 758 mmHg 77%
    01:00 +1°C° 0 mm 1 mps 757 mmHg 77%
    02:00 -1°C° 0 mm 2 mps 757 mmHg 78%
    03:00 -1°C° 0 mm 2 mps 757 mmHg 78%
    04:00 -1°C° 0 mm 3 mps 756 mmHg 77%
    05:00 0°C° 0 mm 3 mps 756 mmHg 76%
    06:00 -1°C° 0 mm 4 mps 756 mmHg 74%
    07:00 -1°C° 0 mm 4 mps 755 mmHg 73%
    08:00 0°C° 0 mm 5 mps 755 mmHg 72%
    09:00 0°C° 0 mm 5 mps 754 mmHg 71%
    10:00 +1°C° 0.2 mm 6 mps 754 mmHg 71%
    11:00 +2°C° 0.2 mm 6 mps 754 mmHg 71%
    12:00 +3°C° 0 mm 6 mps 754 mmHg 70%
    13:00 +3°C° 0.3 mm 6 mps 753 mmHg 72%
    14:00 +2°C° 0.3 mm 6 mps 753 mmHg 73%
    15:00 +2°C° 0.3 mm 6 mps 752 mmHg 74%
    16:00 +2°C° 0.7 mm 6 mps 752 mmHg 77%
    17:00 +2°C° 0.7 mm 6 mps 752 mmHg 79%
    18:00 +1°C° 0.7 mm 6 mps 751 mmHg 81%
    19:00 +1°C° 0.3 mm 6 mps 751 mmHg 83%
    20:00 +2°C° 0.3 mm 6 mps 751 mmHg 85%
    21:00 +2°C° 0.3 mm 6 mps 751 mmHg 87%
    22:00 +2°C° 0.1 mm 6 mps 750 mmHg 89%
    23:00 +2°C° 0.1 mm 6 mps 750 mmHg 90%

    Tomorrow, 19 January, Saturday

    Time Temperature Precipitation Wind Pressure Humidity
    00:00 +2°C° 0.1 mm 6 mps 750 mmHg 91%
    01:00 +2°C° 0 mm 6 mps 750 mmHg 92%
    02:00 +2°C° 0 mm 6 mps 749 mmHg 92%
    03:00 +2°C° 0 mm 6 mps 749 mmHg 92%
    04:00 +2°C° 0 mm 6 mps 749 mmHg 93%
    05:00 +2°C° 0 mm 6 mps 749 mmHg 93%
    06:00 +2°C° 0 mm 5 mps 748 mmHg 93%
    07:00 +2°C° 0 mm 5 mps 748 mmHg 94%
    08:00 +2°C° 0 mm 5 mps 748 mmHg 94%
    09:00 +3°C° 0 mm 5 mps 748 mmHg 94%
    10:00 +3°C° 0.1 mm 5 mps 748 mmHg 93%
    11:00 +5°C° 0.1 mm 5 mps 748 mmHg 93%
    12:00 +5°C° 0.1 mm 5 mps 748 mmHg 92%
    13:00 +6°C° 0.1 mm 5 mps 748 mmHg 92%
    14:00 +6°C° 0.1 mm 5 mps 748 mmHg 92%
    15:00 +6°C° 0.1 mm 5 mps 748 mmHg 91%
    16:00 +5°C° 0 mm 4 mps 748 mmHg 93%
    17:00 +5°C° 0 mm 4 mps 748 mmHg 94%
    18:00 +4°C° 0 mm 4 mps 749 mmHg 95%
    19:00 +4°C° 0 mm 4 mps 749 mmHg 95%
    20:00 +4°C° 0 mm 3 mps 749 mmHg 95%
    21:00 +4°C° 0 mm 3 mps 750 mmHg 95%
    22:00 +4°C° 0 mm 3 mps 750 mmHg 95%
    23:00 +4°C° 0 mm 3 mps 751 mmHg 95%

    Day after tomorrow, 20 January, Sunday

    Time Temperature Precipitation Wind Pressure Humidity
    00:00 +3°C° 0 mm 3 mps 751 mmHg 95%
    01:00 +4°C° 0 mm 2 mps 751 mmHg 96%
    02:00 +3°C° 0 mm 2 mps 752 mmHg 96%
    03:00 +3°C° 0 mm 2 mps 752 mmHg 97%
    04:00 +3°C° 0 mm 2 mps 753 mmHg 96%
    05:00 +4°C° 0 mm 1 mps 753 mmHg 96%
    06:00 +4°C° 0 mm 1 mps 754 mmHg 95%
    07:00 +4°C° 0 mm 1 mps 754 mmHg 95%
    08:00 +4°C° 0 mm 1 mps 755 mmHg 94%
    09:00 +3°C° 0 mm 2 mps 756 mmHg 93%
    10:00 +4°C° 0 mm 2 mps 756 mmHg 92%
    11:00 +4°C° 0 mm 2 mps 757 mmHg 90%
    12:00 +4°C° 0 mm 2 mps 757 mmHg 88%
    13:00 +4°C° 0 mm 2 mps 758 mmHg 87%
    14:00 +5°C° 0 mm 2 mps 758 mmHg 87%
    15:00 +4°C° 0 mm 3 mps 758 mmHg 86%
    16:00 +4°C° 0 mm 2 mps 759 mmHg 88%
    17:00 +3°C° 0 mm 2 mps 760 mmHg 91%
    18:00 +2°C° 0 mm 2 mps 760 mmHg 93%
    19:00 +2°C° 0 mm 2 mps 761 mmHg 94%
    20:00 +2°C° 0 mm 2 mps 761 mmHg 95%
    21:00 +1°C° 0 mm 2 mps 762 mmHg 95%
    22:00 +2°C° 0 mm 1 mps 762 mmHg 95%
    23:00 +2°C° 0 mm 1 mps 763 mmHg 96%

    21 January, Monday

    Time Temperature Precipitation Wind Pressure Humidity
    00:00 +2°C° 0 mm 1 mps 763 mmHg 96%
    01:00 +2°C° 0 mm 1 mps 763 mmHg 96%
    02:00 +2°C° 0 mm 1 mps 763 mmHg 96%
    03:00 +2°C° 0 mm 1 mps 763 mmHg 97%
    04:00 +3°C° 0 mm 1 mps 763 mmHg 96%
    05:00 +3°C° 0 mm 1 mps 763 mmHg 96%
    06:00 +3°C° 0 mm 1 mps 763 mmHg 96%
    07:00 +3°C° 0 mm 1 mps 763 mmHg 96%
    08:00 +3°C° 0 mm 1 mps 763 mmHg 96%
    09:00 +2°C° 0 mm 1 mps 763 mmHg 96%
    10:00 +3°C° 0 mm 2 mps 762 mmHg 92%
    11:00 +4°C° 0 mm 2 mps 762 mmHg 88%
    12:00 +4°C° 0 mm 3 mps 761 mmHg 85%
    13:00 +4°C° 0 mm 4 mps 760 mmHg 83%
    14:00 +4°C° 0 mm 4 mps 759 mmHg 81%
    15:00 +5°C° 0 mm 4 mps 758 mmHg 80%
    16:00 +3°C° 0 mm 5 mps 757 mmHg 81%
    17:00 +3°C° 0 mm 5 mps 756 mmHg 82%
    18:00 +2°C° 0 mm 6 mps 755 mmHg 84%
    19:00 +3°C° 0.2 mm 7 mps 753 mmHg 84%
    20:00 +2°C° 0.2 mm 8 mps 752 mmHg 84%
    21:00 +2°C° 0.2 mm 9 mps 750 mmHg 85%
    22:00 +1°C° 1 mm 8 mps 750 mmHg 82%
    23:00 +2°C° 1 mm 6 mps 750 mmHg 80%

    22 January, Tuesday

    Time Temperature Precipitation Wind Pressure Humidity
    00:00 +1°C° 1 mm 5 mps 749 mmHg 77%
    01:00 0°C° 0 mm 5 mps 749 mmHg 79%
    02:00 -1°C° 0 mm 5 mps 748 mmHg 81%
    03:00 -2°C° 0 mm 4 mps 748 mmHg 83%
    04:00 -1°C° 0 mm 5 mps 748 mmHg 83%
    05:00 -1°C° 0 mm 5 mps 747 mmHg 83%
    06:00 -1°C° 0 mm 5 mps 747 mmHg 82%
    07:00 -1°C° 0 mm 5 mps 747 mmHg 82%
    08:00 -1°C° 0 mm 4 mps 746 mmHg 81%
    09:00 -1°C° 0 mm 4 mps 746 mmHg 80%
    10:00 -1°C° 0.1 mm 5 mps 746 mmHg 76%
    11:00 0°C° 0.1 mm 5 mps 746 mmHg 72%
    12:00 +1°C° 0.1 mm 6 mps 745 mmHg 68%
    13:00 +1°C° 0.1 mm 6 mps 745 mmHg 69%
    14:00 +1°C° 0.1 mm 5 mps 745 mmHg 70%
    15:00 +1°C° 0.1 mm 5 mps 744 mmHg 71%
    16:00 -1°C° 0 mm 4 mps 744 mmHg 75%
    17:00 -2°C° 0 mm 4 mps 744 mmHg 78%
    18:00 -3°C° 0 mm 4 mps 744 mmHg 82%
    19:00 -2°C° 0 mm 3 mps 744 mmHg 83%
    20:00 -2°C° 0 mm 3 mps 744 mmHg 83%
    21:00 -2°C° 0 mm 3 mps 744 mmHg 84%
    22:00 -2°C° 0 mm 3 mps 744 mmHg 84%
    23:00 -2°C° 0 mm 3 mps 744 mmHg 84%

    23 January, Wednesday

    Time Temperature Precipitation Wind Pressure Humidity
    00:00 -2°C° 0 mm 3 mps 743 mmHg 84%
    01:00 -2°C° 0 mm 3 mps 743 mmHg 84%
    02:00 -2°C° 0 mm 3 mps 743 mmHg 85%
    03:00 -2°C° 0 mm 3 mps 743 mmHg 85%
    04:00 -2°C° 0 mm 3 mps 743 mmHg 85%
    05:00 -2°C° 0 mm 3 mps 743 mmHg 85%
    06:00 -1°C° 0 mm 3 mps 743 mmHg 85%
    07:00 -1°C° 0.2 mm 3 mps 743 mmHg 86%
    08:00 -1°C° 0.2 mm 2 mps 743 mmHg 86%
    09:00 +1°C° 0.2 mm 2 mps 743 mmHg 87%
    10:00 0°C° 0 mm 3 mps 743 mmHg 82%
    11:00 0°C° 0 mm 4 mps 744 mmHg 78%
    12:00 +1°C° 0 mm 5 mps 744 mmHg 73%
    13:00 +1°C° 0 mm 5 mps 744 mmHg 72%
    14:00 0°C° 0 mm 4 mps 745 mmHg 71%
    15:00 0°C° 0 mm 4 mps 745 mmHg 71%
    16:00 -1°C° 0 mm 4 mps 745 mmHg 76%
    17:00 -1°C° 0 mm 3 mps 746 mmHg 81%
    18:00 -4°C° 0 mm 3 mps 746 mmHg 87%
    19:00 -3°C° 0 mm 2 mps 746 mmHg 87%
    20:00 -3°C° 0 mm 2 mps 746 mmHg 88%
    21:00 -3°C° 0 mm 2 mps 746 mmHg 88%
    22:00 -3°C° 0 mm 2 mps 746 mmHg 87%
    23:00 -3°C° 0 mm 2 mps 746 mmHg 85%
    Show more